Location: Pedholt
(56.0260°N, 10.2097°E)
Time: 19:24:29
(UTC+00:00)

SR - All Passes

Search period start: 27 July 2021 00:00
Search period end: 06 August 2021 00:00
Orbit: 577 x 878 km, 66.7° (Epoch: 26 July)

Date Brightness Start Highest point End Pass type
(mag) Time Alt. Az. Time Alt. Az. Time Alt. Az.
27 Jul - 06:17:11 10° S 06:22:12 32° ESE 06:27:01 10° NE daylight
27 Jul - 07:58:16 10° SW 08:04:02 75° NW 08:09:24 10° NE daylight
27 Jul - 09:41:50 10° W 09:46:51 32° NNW 09:51:32 10° NE daylight
27 Jul - 11:25:50 10° NW 11:30:19 26° N 11:34:31 10° ENE daylight
27 Jul - 13:08:40 10° NW 13:13:37 41° NNE 13:18:09 10° E daylight
27 Jul - 14:50:58 10° NW 14:55:57 60° SW 15:00:29 10° SSE daylight
27 Jul - 16:35:01 10° W 16:36:53 12° WSW 16:38:43 10° SW daylight
28 Jul - 05:28:44 10° SSE 05:32:44 20° ESE 05:36:37 10° ENE daylight
28 Jul - 07:08:24 10° SSW 07:14:09 75° SE 07:19:33 10° NE daylight
28 Jul - 08:51:20 10° W 08:56:39 40° NNW 09:01:37 10° NE daylight
28 Jul - 10:35:27 10° WNW 10:39:59 26° N 10:44:13 10° NE daylight
28 Jul - 12:18:43 10° NW 12:23:26 32° NNE 12:27:48 10° E daylight
28 Jul - 14:01:03 10° NW 14:06:11 85° NE 14:10:49 10° SE daylight
28 Jul - 15:43:52 10° WNW 15:47:36 22° WSW 15:51:06 10° SSW daylight
29 Jul - 04:41:45 10° ESE 04:43:26 11° ESE 04:45:05 10° E daylight
29 Jul - 06:18:55 10° SSW 06:24:25 48° ESE 06:29:37 10° NE daylight
29 Jul - 08:00:58 10° WSW 08:06:34 54° NW 08:11:46 10° NE daylight
29 Jul - 09:44:56 10° WNW 09:49:39 28° NNW 09:54:05 10° NE daylight
29 Jul - 11:28:38 10° NW 11:33:10 27° NNE 11:37:23 10° ENE daylight
29 Jul - 13:11:10 10° NW 13:16:14 56° NE 13:20:51 10° ESE daylight
29 Jul - 14:53:35 10° NW 14:58:09 37° WSW 15:02:21 10° S daylight
30 Jul - 05:29:53 10° S 05:34:50 30° ESE 05:39:32 10° ENE daylight
30 Jul - 07:10:51 10° SW 07:16:36 78° NW 07:21:57 10° NE daylight
30 Jul - 08:54:23 10° W 08:59:23 33° NNW 09:04:04 10° NE daylight
30 Jul - 10:38:24 10° NW 10:42:50 25° N 10:46:59 10° ENE daylight
30 Jul - 12:21:15 10° NW 12:26:10 40° NNE 12:30:39 10° E daylight
30 Jul - 14:03:33 10° NW 14:08:31 63° SW 14:13:03 10° SSE daylight
30 Jul - 15:47:22 10° WNW 15:49:31 13° WSW 15:51:34 10° SW daylight
31 Jul - 04:41:32 10° SSE 04:45:22 19° ESE 04:49:04 10° ENE daylight
31 Jul - 06:21:01 10° SSW 06:26:45 72° SE 06:32:06 10° NE daylight
31 Jul - 08:03:53 10° W 08:09:13 41° NNW 08:14:10 10° NE daylight
31 Jul - 09:48:00 10° WNW 09:52:30 26° N 09:56:43 10° NE daylight
31 Jul - 11:31:18 10° NW 11:35:58 31° NNE 11:40:17 10° E daylight
31 Jul - 13:13:38 10° NW 13:18:44 81° NE 13:23:21 10° SE daylight
31 Jul - 14:56:24 10° WNW 15:00:12 23° WSW 15:03:46 10° SSW daylight
01 Aug - 03:55:04 10° ESE 03:56:04 10° ESE 03:57:04 10° E daylight
01 Aug - 05:31:34 10° SSW 05:37:01 46° ESE 05:42:10 10° NE daylight
01 Aug - 07:13:32 10° WSW 07:19:08 56° NW 07:24:20 10° NE daylight
01 Aug - 08:57:29 10° WNW 09:02:11 28° NNW 09:06:35 10° NE daylight
01 Aug - 10:41:12 10° NW 10:45:41 27° N 10:49:51 10° ENE daylight
01 Aug - 12:23:45 10° NW 12:28:47 54° NE 12:33:21 10° ESE daylight
01 Aug - 14:06:09 10° NW 14:10:44 39° WSW 14:14:58 10° S daylight
02 Aug - 04:42:36 10° S 04:47:26 29° ESE 04:52:03 10° ENE daylight
02 Aug - 06:23:26 10° SW 06:29:10 81° NW 06:34:30 10° NE daylight
02 Aug - 08:06:54 10° W 08:11:55 33° NNW 08:16:36 10° NE daylight
02 Aug - 09:50:57 10° NW 09:55:21 25° N 09:59:29 10° ENE daylight
02 Aug - 11:33:51 10° NW 11:38:42 39° NNE 11:43:07 10° E daylight
02 Aug - 13:16:07 10° NW 13:21:05 67° SW 13:25:36 10° SSE daylight
02 Aug - 14:59:47 10° WNW 15:02:07 14° WSW 15:04:22 10° SW daylight
03 Aug - 03:54:21 10° SSE 03:58:00 18° ESE 04:01:31 10° ENE daylight
03 Aug - 05:33:39 10° SSW 05:39:20 68° SE 05:44:39 10° NE daylight
03 Aug - 07:16:25 10° WSW 07:21:45 42° NNW 07:26:42 10° NE daylight
03 Aug - 09:00:32 10° WNW 09:05:01 26° N 09:09:13 10° NE daylight
03 Aug - 10:43:53 10° NW 10:48:29 31° NNE 10:52:45 10° E daylight
03 Aug - 12:26:13 10° NW 12:31:17 78° NE 12:35:53 10° SE daylight
03 Aug - 14:08:55 10° WNW 14:12:48 24° WSW 14:16:26 10° SSW daylight
04 Aug - 04:44:14 10° S 04:49:37 43° ESE 04:54:41 10° NE daylight
04 Aug - 06:26:06 10° WSW 06:31:41 58° NW 06:36:52 10° NE daylight
04 Aug - 08:10:00 10° WNW 08:14:42 28° NNW 08:19:06 10° NE daylight
04 Aug - 09:53:46 10° NW 09:58:12 27° N 10:02:19 10° ENE daylight
04 Aug - 11:36:20 10° NW 11:41:19 51° NE 11:45:51 10° ESE daylight
04 Aug - 13:18:42 10° NW 13:23:19 41° WSW 13:27:33 10° S daylight
05 Aug - 03:55:20 10° S 04:00:03 27° ESE 04:04:33 10° ENE daylight
05 Aug - 05:36:01 10° SW 05:41:44 84° NW 05:47:03 10° NE daylight
05 Aug - 07:19:26 10° W 07:24:27 34° NNW 07:29:07 10° NE daylight
05 Aug - 09:03:30 10° NW 09:07:52 25° N 09:11:57 10° ENE daylight
05 Aug - 10:46:26 10° NW 10:51:13 37° NNE 10:55:36 10° E daylight
05 Aug - 12:28:42 10° NW 12:33:39 70° SW 12:38:10 10° SSE daylight
05 Aug - 14:12:13 10° WNW 14:14:45 14° WSW 14:17:10 10° SW daylight
